Championnat Départemental Avenirs Jeunes

Départementale

SAINT-LOUIS

Le Dimanche 28 Avril 2019

Bassin de 25m

50 Nage Libre Dames

Séries

Nom Année Club Pays Temps Points Niv.
1 GAUTHERAT Romane 2006 THANN OLYMPIC N FRA 0:29:78 967
2 GUIMBAUD Nora 2006 DAUPHINS DE ST-LOUIS FRA 0:31:08 883
3 AVENEL Margot 2008 DAUPHINS DE ST-LOUIS FRA 0:31:66 847
4 YALCIN Selin 2006 DAUPHINS DE ST-LOUIS FRA 0:31:66 847
5 PERENO Alessia 2006 MULHOUSE ON FRA 0:31:69 845
6 ARNAUD Méline 2007 CN ILE DU RHIN FRA 0:31:81 838
7 GROUBET Ambre 2006 SR CERNAY FRA 0:32:09 821
8 GUYON Louane 2007 DAUPHINS DE ST-LOUIS FRA 0:32:56 793
9 SOLDERMANN Maeva 2008 DAUPHINS DE ST-LOUIS FRA 0:32:57 792
10 KIEFFER Lianna 2006 A.N.S D'ILLFURTH FRA 0:32:60 790
11 HANRIOT COLIN Chloé 2006 CN ILE DU RHIN FRA 0:32:62 789
12 LAMBERGER Ninon 2006 THANN OLYMPIC N FRA 0:33:31 749
13 KLINK Manon 2008 DAUPHINS DE ST-LOUIS FRA 0:33:32 748
14 KARABEKE Sara 2006 DAUPHINS DE ST-LOUIS FRA 0:33:36 746
15 EGMANN Elsa 2006 A.N.S D'ILLFURTH FRA 0:33:42 742
16 SIRAUD Laura 2006 MULHOUSE ON FRA 0:33:61 731
17 ERLEWEIN Eva 2006 A.N.S D'ILLFURTH FRA 0:33:72 725
18 DUREAULT Chloe 2008 DAUPHINS DE ST-LOUIS FRA 0:33:77 722
19 BRUN Emilie 2006 KAYSERSBERG NATATION FRA 0:34:14 701
20 WERLEN Maeva 2006 DAUPHINS DE ST-LOUIS FRA 0:34:42 686
21 ERTLE Sophie 2006 SR COLMAR FRA 0:34:71 670
22 ZWENGER Eléa 2007 0:35:10 649
23 AZZOUZ Siena 2006 SR CERNAY FRA 0:35:15 646
24 DUPONT Anna 2007 A.N.S D'ILLFURTH FRA 0:35:59 623
25 GUY Chloe 2008 SR COLMAR FRA 0:35:78 613
26 RAMIS Natasha 2006 SR CERNAY FRA 0:35:92 605
27 ANANI Fatima 2008 DAUPHINS DE ST-LOUIS FRA 0:35:93 605
28 WIECZOREK Melanie 2007 0:36:03 600
29 GANGLER Melina 2007 SR CERNAY FRA 0:36:28 587
30 BALDEWECK Romane 2008 SR COLMAR FRA 0:36:76 562
31 BOUDET-BROBECKER Iphigenie 2008 DAUPHINS DE ST-LOUIS FRA 0:37:20 541
32 REIG Juliane 2008 0:37:23 539
33 BATT Morgane 2007 DAUPHINS DE ST-LOUIS FRA 0:37:28 537
34 NAJJARINE Sarah 2009 MULHOUSE ON FRA 0:37:39 531
35 SCHWINDENHAMMER Anae 2008 SR COLMAR FRA 0:37:89 507
36 DICK Maeva 2008 A.N.S D'ILLFURTH FRA 0:38:03 501
37 BAUBY Louise 2008 SR COLMAR FRA 0:38:15 495
38 WERTH Selena 2007 A.N.S D'ILLFURTH FRA 0:38:38 484
39 MAC DOUGALL Joanna 2009 SR COLMAR FRA 0:38:42 482
40 AURINE Anelia 2009 MULHOUSE ON FRA 0:38:49 479
41 SCHAPPLER Lisy 2008 CN ILE DU RHIN FRA 0:38:88 461
42 SERRATORE Iyomi 2008 DAUPHINS DE ST-LOUIS FRA 0:38:97 457
43 SELLES Lisa 2008 DAUPHINS DE ST-LOUIS FRA 0:39:37 439
44 WERLEN Zoe 2008 DAUPHINS DE ST-LOUIS FRA 0:39:45 436
45 HUG Lucille 2006 0:39:72 424
46 MALYGINA Sopfia 2009 MULHOUSE ON FRA 0:40:06 409
47 COUTURIER Victoria 2009 MULHOUSE ON FRA 0:40:58 387
48 DECAUDIN Eva 2008 DAUPHINS DE ST-LOUIS FRA 0:40:97 371
49 CHEVRIER Emma 2009 A.N.S D'ILLFURTH FRA 0:41:14 364
50 NASS Capucine 2009 A.N.S D'ILLFURTH FRA 0:41:27 359
51 MASSON Cassie 2010 0:41:28 359
52 SCHUBETZER Emma 2009 A.N.S D'ILLFURTH FRA 0:41:34 356
53 CHARROIS Pauline 2008 SR COLMAR FRA 0:42:15 325
54 MULLER Enola 2010 0:42:40 315
55 PENIN Leonie 2009 THANN OLYMPIC N FRA 0:42:86 298
56 ENON Mathilde 2009 THANN OLYMPIC N FRA 0:43:08 290
57 TROMMENSCHLAGER Elsa 2007 KAYSERSBERG NATATION FRA 0:43:12 289
58 BARADEL Manon 2010 KAYSERSBERG NATATION FRA 0:43:13 288
59 DARDENNE Cloé 2009 CLUB NAUTIQUE DE LA DOLLER FRA 0:43:16 287
60 BOEHRER Olwen 2008 MULHOUSE ON FRA 0:43:34 281
61 FAGHNNA Fayrouz 2009 SR COLMAR FRA 0:43:71 268
62 NORDEZ Eline 2007 SR COLMAR FRA 0:43:77 266
63 BOULCOURT Lisa 2010 DAUPHINS DE ST-LOUIS FRA 0:44:28 249
64 MENZEL Anna-Midori 2008 SR COLMAR FRA 0:44:35 246
65 DUBOIS Lilou 2009 0:44:35 246
66 CRUPI Lucielou 2008 KAYSERSBERG NATATION FRA 0:44:72 234
67 DE SOUSA Sarah 2010 C.N DU FLORIVAL FRA 0:44:79 232
68 WIESER Lena 2009 DAUPHINS DE ST-LOUIS FRA 0:44:92 228
69 CORDIER Reine-claude 2009 C.N DU FLORIVAL FRA 0:45:21 219
70 NGUYEN Morgane 2009 DAUPHINS DE ST-LOUIS FRA 0:45:21 219
71 SALLIT Lena 2009 DAUPHINS DE ST-LOUIS FRA 0:45:62 206
72 D'AMBROSIO Alexia 2010 C.N DU FLORIVAL FRA 0:46:86 170
73 ECKERLEN Aurore 2010 0:46:88 170
74 MARTINEZ Iliana 2010 C.N DU FLORIVAL FRA 0:47:04 165
75 BRUNNER Zoé 2010 0:47:31 158
76 HUG Chloé 2010 0:47:43 155
77 FOURNIER Mathilde 2009 THANN OLYMPIC N FRA 0:47:78 146
78 BRüCK Josephine 2009 DAUPHINS DE ST-LOUIS FRA 0:47:89 143
79 STUDER-VARILLON Thaïs 2009 CLUB NAUTIQUE DE LA DOLLER FRA 0:49:45 106
80 SCHLICKLIN Ava 2009 A.N.S D'ILLFURTH FRA 0:49:53 105
81 STUDER Clémence 2009 THANN OLYMPIC N FRA 0:50:22 90
82 REY Eileen 2010 MULHOUSE ON FRA 0:50:30 89
83 GANGLER Alwena 2010 SR CERNAY FRA 0:51:84 61
84 ROOST Amelie 2010 MULHOUSE ON FRA 0:52:18 55
85 NGUYEN Maelle 2010 MULHOUSE ON FRA 0:52:56 49
86 RETOURNARD Marie 2009 SR COLMAR FRA 0:52:57 49
87 SIMON Pauline 2010 C.N DU FLORIVAL FRA 0:52:85 45
88 ZARHDAD Sofia 2010 MULHOUSE ON FRA 0:53:18 41
89 RENTZ-ESPOSITO Emma 2010 KAYSERSBERG NATATION FRA - Disq.
90 RIMELIN Anna 2010 MULHOUSE ON FRA - Disq.
91 DELONGVERT Apolline 2009 C.N DU FLORIVAL FRA - Disq.